Theta_e
314 315 316 315 317 318 318 317 317 317 317 317 317 316 316 316 316 317 317 317 318 316 315 315 315 314 314 314 315 316 316 315 316 316 316 317 317 317 317 317 316 315 314 314 313 312 311 311 311 311 311 311 311 311 312 312 312 311 311 310 310 310 309 309 309 309 309 309 310 310 310 311 311 313 314 314 314 316 317 317 316 315 316 316 316 316
314 316 317 317 317 318 318 318 317 317 316 316 316 316 316 316 316 317 317 318 317 315 315 314 314 314 314 314 315 316 316 316 316 317 317 317 318 318 317 316 315 315 315 314 313 311 310 310 311 312 312 312 312 312 312 312 312 311 311 310 310 310 310 309 309 309 309 309 309 309 309 310 310 311 312 312 313 315 316 315 315 316 316 316 317 317
315 316 316 317 318 317 317 317 315 315 315 315 315 315 316 316 317 317 317 316 314 313 314 314 314 314 314 314 315 316 316 317 317 317 318 318 318 317 315 315 315 315 314 313 312 310 309 310 311 312 312 312 312 312 312 311 311 311 310 310 310 310 310 310 309 309 308 308 308 308 308 309 309 310 310 310 312 313 313 313 314 315 315 316 317 317
318 318 317 317 318 317 316 316 315 314 314 315 315 315 316 317 317 317 317 315 314 313 314 314 314 314 316 316 316 317 317 317 317 318 318 317 316 315 315 315 315 314 313 312 310 309 309 310 310 311 311 311 312 311 311 311 311 310 310 310 310 310 310 310 310 309 309 308 308 308 308 308 308 308 309 309 310 310 310 311 311 312 313 314 315 316
319 318 316 316 316 315 316 315 315 315 315 316 316 316 316 317 317 316 316 315 314 315 314 314 315 316 317 318 317 317 318 317 318 318 316 315 315 315 314 314 313 312 311 310 308 308 309 310 310 310 311 311 312 312 311 311 311 310 310 310 310 309 309 309 309 309 309 308 308 307 307 308 307 308 308 308 308 309 309 309 310 310 311 311 312 313
317 317 315 315 315 315 315 315 315 316 316 316 317 317 317 317 316 315 315 315 315 315 314 314 316 317 317 318 318 318 318 318 319 317 315 315 315 314 314 313 312 311 310 308 307 308 309 309 310 310 311 312 312 311 311 310 310 310 309 310 310 310 309 309 308 308 308 308 307 307 307 307 307 307 307 307 307 308 308 308 308 309 309 309 310 311
316 314 314 315 316 316 316 315 316 316 315 317 317 317 316 316 316 315 315 315 314 315 315 314 315 317 318 318 319 319 318 319 318 316 314 315 314 313 312 311 310 310 308 307 307 308 309 309 310 311 311 311 311 311 311 310 310 309 309 310 310 310 310 309 309 308 307 307 306 306 306 306 306 306 306 307 307 307 307 307 307 308 308 308 308 309
315 314 313 314 315 316 316 316 316 316 316 317 316 315 315 315 315 315 315 314 314 315 315 315 315 317 317 318 319 318 318 319 316 314 314 314 313 311 310 310 309 308 307 306 306 308 308 309 309 310 310 310 310 310 310 310 310 309 309 310 310 310 310 309 309 309 308 307 306 305 305 305 305 305 305 306 306 306 306 306 306 306 306 307 307 307
315 314 315 315 315 315 316 316 317 316 316 316 313 312 314 313 313 314 313 314 314 315 316 316 315 318 319 319 319 318 318 317 314 313 313 313 312 310 309 309 308 306 305 304 305 306 307 308 308 308 309 309 310 310 310 310 310 310 310 311 311 311 310 310 309 309 308 308 307 305 305 304 305 305 305 305 305 305 305 305 305 305 305 306 306 306
314 313 314 315 315 316 315 315 316 316 315 314 312 312 313 313 313 313 313 313 314 315 318 318 316 318 320 319 319 318 317 316 313 312 313 312 311 310 309 308 306 305 304 303 304 304 305 305 306 306 307 308 308 308 309 309 309 309 310 311 311 311 311 310 310 309 309 308 307 307 306 304 304 304 304 304 304 304 304 304 304 304 304 305 305 305
313 310 310 313 314 315 313 311 312 314 313 312 312 313 313 314 314 313 313 313 315 318 319 318 317 318 319 319 318 317 316 314 313 312 312 311 310 309 308 306 305 304 302 302 303 303 303 304 305 305 306 307 307 307 307 308 308 309 310 310 310 310 310 310 310 309 309 308 308 307 306 306 305 304 303 303 303 304 304 303 303 303 304 304 304 304
313 311 310 312 313 313 313 311 310 311 311 311 312 312 314 316 315 314 314 314 317 321 318 316 317 317 319 319 317 316 314 313 313 313 311 311 309 308 306 305 304 302 302 302 303 303 303 303 304 304 305 305 305 305 305 306 308 309 309 309 310 310 310 309 309 309 309 309 308 307 307 306 306 305 304 303 303 303 303 303 302 303 303 303 303 303
315 315 314 313 312 311 313 313 312 311 310 311 312 313 316 318 317 317 318 317 319 320 315 313 315 317 318 318 317 318 315 313 313 313 311 310 309 307 305 304 303 301 301 301 302 303 302 301 302 303 303 303 303 303 304 306 307 308 308 308 309 309 308 309 309 308 308 308 308 307 306 306 305 305 304 303 303 302 302 302 302 302 302 302 302 302
316 317 315 314 313 311 312 314 315 314 312 311 313 315 316 317 317 318 318 318 319 318 314 312 315 317 317 317 317 319 315 312 312 312 311 310 308 306 304 303 302 300 300 299 299 299 298 298 300 300 300 301 301 303 304 306 306 307 307 307 308 308 307 307 308 308 307 307 307 307 306 305 305 304 304 303 303 302 302 302 302 302 301 301 301 301
316 316 315 316 315 313 312 314 317 317 314 313 314 315 316 316 317 317 318 318 318 319 316 315 317 319 318 317 317 317 314 311 311 310 308 308 306 304 303 302 301 300 299 298 298 297 296 298 299 299 299 300 301 302 303 303 304 304 305 305 306 306 306 306 306 306 306 306 306 306 305 305 304 304 303 303 303 303 303 302 302 302 301 301 300 300
315 315 316 316 313 313 314 315 316 316 315 314 312 314 315 316 317 318 318 318 318 319 318 316 317 318 317 317 316 316 313 310 310 309 307 306 305 303 303 301 300 299 298 298 297 296 297 298 299 299 299 300 300 301 301 301 301 302 302 303 303 304 304 305 305 305 305 304 305 305 304 304 304 304 304 303 303 303 302 302 302 302 302 301 301 300
314 315 318 315 312 312 314 314 315 315 315 313 312 314 314 315 316 317 317 317 317 317 317 317 317 317 316 317 317 315 312 309 309 308 306 305 304 303 302 300 299 298 297 296 296 296 297 298 298 298 299 299 299 299 300 300 300 300 301 301 301 301 302 302 303 303 303 303 303 303 303 303 303 304 304 304 303 303 302 302 302 301 302 302 302 301
315 315 317 316 315 313 309 310 312 313 313 313 313 314 314 314 314 314 316 317 317 317 317 317 317 316 316 316 314 313 311 309 308 306 306 304 303 301 300 299 298 297 296 296 296 297 297 297 297 298 298 298 298 298 298 299 299 300 300 300 299 299 299 300 300 301 302 302 302 301 301 302 302 303 303 303 303 303 303 302 302 301 301 301 301 302
316 316 317 317 317 313 308 310 312 312 312 312 312 312 313 315 314 314 315 316 316 317 317 316 317 316 316 315 314 314 311 309 307 305 304 303 302 301 299 298 297 296 296 296 296 296 296 297 297 297 297 297 298 298 298 298 298 299 299 298 298 298 299 299 299 300 300 300 300 300 299 299 300 300 301 301 302 302 303 303 302 302 301 301 300 301
314 315 317 316 315 313 310 312 314 313 311 310 310 311 312 314 314 314 315 315 316 316 316 317 317 316 316 315 315 315 312 309 307 305 303 302 301 300 299 298 297 296 296 295 295 295 296 296 296 296 296 296 297 297 297 298 298 298 298 298 298 298 298 298 298 298 298 299 299 299 299 299 299 299 299 299 300 300 301 301 302 302 302 301 301 301
313 314 316 315 314 313 313 313 314 314 313 311 310 311 312 312 312 313 314 315 315 316 316 317 316 315 314 314 314 313 311 310 308 305 302 300 299 298 298 297 296 295 295 294 294 295 295 295 295 295 296 296 297 297 297 298 298 298 298 298 297 297 297 297 296 296 297 297 297 297 298 298 298 298 298 298 298 298 299 299 300 301 301 301 301 301
313 314 314 314 314 314 314 314 314 314 314 313 313 312 313 313 313 314 314 315 315 315 316 316 316 315 313 312 311 310 308 307 305 303 301 300 299 298 297 296 295 295 294 294 294 294 294 294 295 295 296 296 297 297 297 297 297 297 296 296 296 296 295 295 294 294 294 294 295 295 296 296 297 297 297 297 297 297 298 298 298 299 299 300 300 300
312 312 313 313 314 313 313 313 314 314 314 314 314 313 313 314 314 314 315 315 315 315 316 315 316 316 311 307 307 307 305 304 303 302 301 299 298 297 296 295 295 295 295 295 295 294 295 295 295 295 295 295 295 295 295 295 295 295 294 294 295 294 294 294 293 293 292 292 292 292 293 293 294 295 296 296 297 297 297 297 297 297 298 298 298 299
310 311 312 313 313 312 312 312 313 314 313 314 314 313 313 313 313 313 313 313 313 313 314 315 316 318 312 305 303 304 303 303 302 302 301 300 298 297 297 296 296 296 296 295 295 294 294 294 294 294 293 293 293 293 293 293 293 293 293 293 293 293 292 292 292 292 292 291 291 290 290 291 291 291 292 293 295 295 296 296 296 296 296 296 297 297
311 312 313 312 312 312 311 311 312 313 313 312 312 311 311 312 311 312 311 312 312 313 313 313 315 316 310 304 302 303 302 302 302 301 301 300 298 297 296 296 295 295 294 294 293 292 293 292 292 292 292 292 292 292 292 292 292 291 291 291 291 291 291 291 291 291 291 291 291 290 290 289 289 289 289 290 291 292 292 293 294 294 295 295 296 296
310 311 312 311 311 311 311 311 312 312 311 310 310 310 310 311 311 311 311 311 312 312 312 312 313 313 310 306 305 303 302 302 301 300 300 299 298 297 296 295 294 294 293 293 292 292 292 292 291 291 291 291 291 291 291 291 291 290 290 290 290 290 289 290 289 289 289 289 289 289 289 289 289 288 288 288 288 289 289 290 291 291 291 292 293 294
309 310 311 311 311 311 311 311 311 310 310 309 310 310 310 310 310 310 309 310 310 310 310 310 310 310 309 308 307 306 305 306 304 300 299 298 297 296 295 295 294 293 292 291 291 291 291 291 291 290 290 290 290 290 290 290 290 290 289 289 289 289 289 288 288 288 288 288 288 288 288 288 288 288 287 287 287 287 288 288 288 289 289 290 290 291
308 308 309 310 310 309 309 309 309 308 308 308 308 308 308 309 309 309 308 308 308 309 308 308 308 309 308 307 307 307 307 307 305 301 299 298 296 295 295 295 294 293 292 292 291 291 291 290 290 290 290 290 289 289 289 289 289 289 289 289 289 289 288 288 288 288 287 287 287 287 287 287 287 287 287 287 287 287 287 287 287 287 288 288 288 289
306 306 306 306 307 306 306 306 306 306 306 306 306 306 306 306 307 307 307 306 306 307 307 306 306 306 306 305 305 306 305 304 303 300 299 298 297 296 296 295 294 294 293 293 292 292 291 291 291 290 289 289 289 289 288 288 288 288 288 288 288 288 288 288 288 288 287 287 287 287 287 287 287 287 287 287 287 287 286 286 286 286 287 287 287 287
304 304 304 304 305 305 305 304 305 304 304 304 304 304 304 304 305 305 305 304 304 304 304 304 304 304 304 304 303 303 303 301 300 298 297 297 296 296 296 295 295 295 294 293 293 292 292 292 291 290 289 289 288 288 288 288 288 288 288 287 287 287 287 287 287 287 287 287 287 287 287 286 286 286 286 286 286 286 286 286 286 286 286 286 286 286
304 304 304 303 303 304 304 304 304 303 303 303 303 303 303 303 303 303 303 303 303 303 303 303 303 303 303 303 301 300 300 299 298 297 296 296 295 295 295 295 295 295 295 294 293 292 292 292 291 291 291 290 289 288 288 288 288 287 287 287 287 287 287 287 287 287 287 287 287 287 286 286 286 286 286 286 286 286 286 286 286 286 286 286 286 286
303 303 303 303 303 303 303 303 303 302 302 302 301 302 301 301 301 301 302 302 302 302 302 302 303 302 302 301 299 298 297 296 296 296 295 295 294 293 293 293 293 293 294 294 294 293 292 292 292 291 291 290 289 289 288 288 288 288 288 288 288 288 287 287 287 287 287 287 287 287 287 286 286 286 286 286 286 286 286 286 286 286 286 286 286 286
302 302 301 302 302 302 302 301 300 300 300 299 300 300 300 300 300 300 301 301 301 301 301 301 301 300 299 299 299 297 295 294 294 294 294 293 293 292 293 293 293 293 293 294 294 294 293 292 291 291 290 289 289 289 288 288 288 288 288 288 288 288 288 288 288 288 287 287 287 287 287 286 286 286 286 286 286 286 286 286 286 286 286 286 286 286
300 300 300 300 300 300 301 300 299 298 299 299 299 299 299 299 299 299 299 299 299 300 300 300 299 298 298 298 297 295 293 293 293 293 292 292 292 292 292 292 292 292 292 293 293 293 293 292 291 290 290 289 289 289 289 289 289 289 288 288 288 288 288 288 288 288 288 287 287 287 287 286 286 286 287 286 286 286 286 286 286 286 285 285 286 286
299 299 299 299 299 299 299 298 298 298 298 297 297 298 298 297 297 297 297 297 297 298 298 298 298 299 298 296 294 293 292 292 292 292 292 292 292 292 291 291 291 291 291 292 293 293 293 292 291 291 290 290 290 289 289 289 289 289 288 288 287 287 287 287 287 287 287 287 287 286 286 286 286 286 286 286 286 286 286 286 286 286 285 285 285 285
298 298 298 297 297 297 297 297 298 298 297 295 296 297 297 297 297 297 297 297 297 297 297 297 298 298 296 294 292 292 292 292 292 292 292 292 293 293 292 291 291 291 291 291 291 292 292 292 292 291 290 290 290 290 290 290 289 289 288 287 287 286 286 286 286 286 285 285 285 285 285 286 286 286 286 286 286 286 286 286 286 286 285 285 285 285
297 297 297 297 297 297 296 297 298 298 297 297 296 297 297 297 296 297 297 297 297 297 297 298 297 295 293 292 292 292 292 292 292 292 293 293 292 293 292 291 291 290 290 290 290 291 291 291 291 291 291 291 290 290 290 289 289 288 287 286 285 285 285 284 284 285 285 284 285 285 285 285 285 285 286 286 286 286 286 286 286 286 285 285 285 285
297 297 297 297 297 296 296 296 297 296 297 297 296 296 297 296 296 296 296 297 297 297 296 297 296 293 292 292 291 292 292 292 292 292 293 293 292 292 291 291 290 290 290 290 290 290 290 290 290 290 290 290 290 289 289 288 288 287 286 285 285 284 284 284 284 284 284 284 284 284 284 284 284 284 284 285 285 286 285 285 285 285 285 284 285 285
294 295 296 296 296 296 295 295 296 295 296 296 295 295 296 295 296 295 295 295 296 294 294 294 293 291 291 292 291 291 292 291 291 292 293 292 291 291 291 291 290 290 290 290 290 289 289 289 289 289 289 289 289 288 288 287 287 286 286 285 285 285 285 284 284 283 282 283 283 283 283 283 282 282 282 283 283 284 284 284 284 284 283 283 284 284
293 294 295 295 295 295 295 295 295 295 295 295 295 295 295 295 295 294 293 293 293 293 293 292 292 291 291 291 291 291 291 291 291 292 292 291 291 291 290 290 290 290 290 289 289 289 289 289 289 289 288 288 288 288 287 287 286 286 286 286 285 285 284 283 282 281 281 281 282 282 281 281 281 281 280 280 281 281 281 282 282 282 282 282 283 283
293 293 294 295 295 295 295 295 294 294 295 295 295 295 295 295 294 294 293 292 292 292 292 292 292 292 291 291 291 291 291 291 291 291 291 290 290 290 290 290 290 289 289 289 289 289 288 288 288 288 288 287 287 287 286 286 285 285 285 285 285 283 282 281 280 280 279 280 280 280 280 280 279 279 278 278 278 278 279 279 279 280 280 280 281 282
292 292 292 293 294 294 294 294 293 294 294 295 295 295 295 294 293 294 294 292 292 292 292 292 292 292 291 291 291 291 291 291 291 290 290 290 290 290 290 289 289 289 289 289 288 288 288 288 288 287 287 287 286 286 285 285 285 284 284 284 283 282 281 281 280 279 279 279 279 279 279 278 277 276 276 276 276 275 276 276 276 276 276 277 278 279
292 292 292 292 293 293 293 293 293 293 294 294 294 293 294 294 294 294 294 293 293 292 292 292 292 291 291 291 291 291 291 290 290 290 290 290 290 290 289 289 289 288 288 288 287 287 287 287 287 286 286 286 285 285 284 284 284 283 283 283 282 281 281 280 279 278 278 278 278 278 278 277 276 275 274 274 273 273 273 274 274 273 273 273 274 274
292 292 291 292 293 292 292 293 293 293 293 293 293 292 293 294 294 293 293 293 293 292 292 292 291 291 291 291 291 290 290 290 290 290 289 289 289 289 288 288 288 287 287 287 286 286 286 286 286 286 285 284 284 283 283 282 282 282 282 281 280 279 279 278 278 277 278 278 277 277 277 276 276 275 274 273 273 272 272 272 272 272 272 272 272 272
293 293 292 292 292 292 292 292 293 293 293 293 293 293 293 293 293 293 293 292 292 292 292 291 291 291 291 290 290 290 289 289 289 289 289 288 288 288 287 287 287 286 286 285 285 285 285 285 284 284 284 283 282 282 282 281 280 280 280 279 278 277 277 277 276 276 277 277 276 276 276 275 275 275 274 273 272 271 270 270 270 270 270 270 270 270
293 293 293 292 292 292 292 292 293 293 292 293 293 293 293 292 292 292 292 292 292 292 291 291 291 290 290 289 289 289 289 289 288 288 288 288 287 287 286 286 285 285 285 285 284 284 284 283 282 282 282 282 282 281 281 280 278 278 277 276 276 276 276 275 275 275 275 275 275 274 273 273 273 272 271 270 270 269 268 268 268 268 268 268 269 269
292 293 292 292 292 292 292 292 292 292 292 292 292 292 292 292 292 292 292 292 291 291 291 291 290 290 289 289 288 288 288 288 287 287 287 287 286 286 285 285 284 284 284 284 283 282 282 281 281 282 282 282 281 280 279 278 277 276 275 275 275 275 274 274 274 274 274 273 272 272 271 270 270 269 269 268 267 266 266 266 266 266 267 267 268 268
292 292 292 291 291 291 291 291 292 292 292 292 292 292 292 292 292 291 291 291 291 291 290 290 289 289 289 288 288 287 287 286 286 286 286 285 285 285 284 284 283 283 283 282 281 281 281 281 281 281 281 281 280 278 277 276 275 275 275 274 274 274 274 273 272 271 271 270 269 268 268 267 266 266 265 265 265 264 264 264 265 265 265 266 266 266
293 292 292 291 291 291 291 291 292 292 292 292 292 292 292 292 291 291 291 291 291 290 290 289 289 289 288 288 287 287 286 286 285 285 284 284 284 283 283 283 282 282 281 281 280 280 280 280 280 280 279 278 277 276 276 275 275 275 274 273 273 272 272 272 271 270 269 268 267 266 265 264 263 263 263 263 263 263 263 263 263 264 264 264 265 265
292 292 292 292 291 291 291 291 292 291 291 292 292 292 292 291 291 291 291 291 290 290 289 289 289 288 288 287 287 286 286 285 284 284 284 283 283 282 282 282 281 281 280 280 280 280 279 279 278 278 277 276 275 275 275 275 275 274 273 272 272 271 270 270 269 268 267 265 264 264 263 262 262 262 262 262 262 262 263 263 263 263 264 264 264 265
292 292 292 292 291 291 292 292 292 292 292 292 292 292 291 291 291 290 290 290 289 289 289 288 288 287 287 286 286 285 285 284 283 283 283 283 282 281 281 280 280 280 280 279 279 279 278 278 277 276 276 275 275 275 275 275 274 273 272 271 271 270 269 268 267 265 264 263 262 262 262 262 262 262 262 262 262 262 262 262 262 263 263 264 264 265
Wind_Speed
7 6 6 7 9 11 12 13 15 16 16 17 15 13 14 14 13 14 15 14 14 14 11 13 16 17 17 16 17 22 23 21 23 23 24 27 25 17 7 2 3 4 5 6 9 11 11 11 12 12 12 10 7 5 4 5 7 9 10 11 14 14 15 16 18 20 21 23 25 28 31 34 37 39 39 41 43 39 34 38 46 48 48 47 46 45
5 7 8 10 13 14 14 12 12 14 14 15 13 12 13 12 12 15 16 15 12 10 9 12 16 17 17 18 20 23 19 16 18 19 22 24 16 4 3 3 4 2 6 10 12 14 15 16 16 17 17 16 15 13 10 7 4 4 7 9 10 12 13 13 14 16 18 19 21 23 26 28 31 35 38 40 40 36 34 42 49 49 49 49 47 47
6 8 11 15 14 14 14 11 11 13 13 13 10 10 10 9 12 14 12 8 4 4 9 14 16 15 17 21 20 18 13 12 16 20 20 13 4 3 3 3 3 8 11 12 14 16 19 21 20 21 21 21 21 20 17 14 9 4 2 5 7 10 11 11 12 13 15 16 18 20 22 25 27 30 33 35 37 38 39 43 45 47 49 49 48 48
6 6 8 13 13 12 13 11 11 12 10 10 9 9 9 10 12 10 7 5 3 7 12 14 14 12 15 16 11 10 10 10 15 17 8 3 4 4 5 8 10 12 13 14 16 18 22 24 24 25 25 25 25 25 23 21 16 11 6 3 3 6 8 9 10 10 11 13 15 17 19 22 24 27 30 32 33 36 38 39 40 43 45 46 48 48
12 7 1 5 9 9 12 11 11 10 8 9 10 9 11 12 13 12 11 11 11 11 9 10 11 7 5 3 4 5 7 8 13 5 8 9 6 10 14 15 15 15 15 15 17 21 24 25 27 27 27 26 26 27 27 26 23 19 14 9 5 3 4 6 8 8 9 11 12 14 16 18 20 23 26 28 30 32 33 34 35 36 38 40 42 44
12 6 3 4 6 7 9 10 12 10 7 9 9 10 13 13 13 14 14 12 9 6 1 6 8 4 1 1 5 5 6 13 10 7 13 10 11 14 17 17 16 16 17 17 19 22 24 25 27 27 27 27 27 28 27 27 26 23 20 17 13 9 5 4 5 5 7 9 11 12 14 16 19 21 23 24 26 28 29 29 30 31 32 34 35 37
6 1 3 4 7 7 8 9 12 10 7 7 4 4 8 10 11 12 11 8 6 5 2 3 5 6 4 7 11 8 9 14 3 9 10 12 14 14 17 17 15 15 17 19 22 23 24 25 26 26 27 28 28 28 28 28 28 27 25 25 23 19 15 10 7 5 4 6 8 10 12 14 17 20 21 22 24 25 26 27 27 27 29 29 30 31
4 4 2 3 6 6 6 8 9 8 8 5 3 5 5 7 9 8 6 6 6 8 9 5 6 8 7 7 7 6 12 9 6 11 10 15 17 17 18 17 16 16 16 20 23 24 24 25 25 26 26 27 27 27 28 29 30 29 29 29 28 27 25 21 17 11 7 5 6 8 10 12 13 16 18 19 22 25 25 26 26 26 27 27 26 26
3 5 5 6 6 6 8 7 2 6 8 2 4 4 4 4 7 5 5 7 7 8 8 5 7 7 8 5 2 7 10 2 10 11 10 14 16 17 17 16 17 15 16 21 24 25 25 25 26 26 25 25 25 26 27 28 29 30 30 30 30 30 30 28 26 21 16 11 8 8 8 10 11 13 15 17 20 23 24 25 25 25 26 26 25 25
0 2 2 5 6 6 6 3 2 4 5 1 2 2 3 4 6 5 6 6 6 7 9 6 9 6 8 6 2 5 6 3 9 8 10 13 14 15 14 15 15 15 18 21 22 24 25 25 26 25 25 25 25 26 27 27 28 29 30 31 32 32 32 31 30 28 24 20 16 13 10 10 10 11 13 15 17 20 22 24 24 24 25 25 24 23
3 3 2 4 9 5 1 3 3 1 0 1 2 4 5 7 6 5 5 4 5 7 7 5 11 8 6 3 1 1 1 6 8 6 9 13 14 13 12 12 14 17 20 20 21 24 24 24 24 24 24 24 24 25 25 26 28 28 30 31 31 32 32 31 30 29 28 26 23 20 16 14 13 12 13 14 15 16 18 22 23 24 24 24 23 22
6 4 2 6 9 5 1 2 1 2 1 1 4 5 6 5 4 4 4 3 5 6 3 4 4 7 7 3 2 2 5 6 4 6 9 11 14 12 11 11 13 17 20 20 22 23 22 22 22 22 23 23 23 24 24 26 27 28 30 30 29 30 30 30 30 29 29 27 26 23 21 18 16 14 14 15 16 16 16 18 21 22 23 23 23 22
5 8 8 6 5 7 6 3 2 3 3 3 4 4 5 5 4 5 5 4 6 4 3 4 1 5 9 7 7 6 4 7 5 8 12 12 14 13 12 10 11 16 18 20 21 20 19 20 21 22 22 22 22 23 24 25 27 28 28 28 29 29 29 28 29 29 29 27 26 24 22 20 18 16 15 14 15 16 16 17 18 20 21 23 24 24
4 3 8 6 2 8 9 5 3 3 5 6 5 4 5 5 6 7 6 6 7 3 3 1 1 5 8 7 12 14 4 11 10 12 15 16 16 14 12 11 12 16 18 20 20 17 17 20 22 22 21 21 21 22 23 25 25 26 26 26 27 27 26 26 27 28 28 28 27 25 23 21 19 18 17 15 15 16 17 17 18 18 18 19 21 23
7 4 6 6 2 9 12 9 5 1 4 7 3 3 5 5 6 6 5 7 9 7 3 2 2 4 5 3 3 5 9 14 12 15 16 15 16 14 13 12 12 14 16 18 16 14 16 20 21 20 20 22 22 23 24 24 24 23 23 24 24 24 24 25 26 26 27 27 26 25 23 22 20 19 18 17 17 17 17 18 19 19 19 19 18 19
7 7 3 3 1 8 10 8 3 1 2 3 1 2 4 3 4 4 4 5 6 8 7 5 4 5 6 5 5 3 11 15 13 15 15 13 13 12 12 11 9 10 12 13 12 13 17 19 18 19 20 21 21 22 23 23 23 23 23 24 23 22 22 22 23 24 25 25 24 23 23 22 22 21 20 19 18 17 18 18 19 20 20 21 21 19
6 7 3 5 1 4 3 2 1 1 3 2 2 3 2 1 1 3 5 3 2 7 8 6 8 8 8 9 9 6 8 12 12 12 13 12 11 11 11 10 8 8 9 10 12 15 17 17 17 19 20 20 21 21 22 23 23 24 24 24 22 21 20 21 21 22 22 22 21 21 22 22 22 22 22 21 20 19 18 17 17 18 18 19 21 21
6 9 3 3 6 3 2 3 1 2 2 2 2 2 1 1 1 3 6 4 6 10 7 7 12 11 9 7 1 7 9 9 9 10 10 10 10 10 9 7 7 8 9 11 14 16 16 16 17 18 18 18 19 20 21 22 22 23 23 23 22 21 21 22 22 22 21 21 21 21 21 22 22 22 23 22 22 21 20 18 17 17 16 16 17 19
2 8 7 3 4 1 3 1 4 3 1 1 2 2 1 3 3 4 6 5 8 11 7 9 13 11 9 9 6 5 9 10 9 9 8 7 8 9 8 6 6 7 7 9 12 14 15 15 16 15 15 16 16 17 18 19 20 20 21 21 21 21 22 22 22 21 20 20 21 21 22 22 22 22 22 22 22 22 21 20 19 18 18 17 16 17
2 5 6 2 3 1 2 2 5 5 2 1 2 3 2 2 4 6 5 5 8 11 9 10 10 9 8 8 11 7 8 12 9 8 7 6 7 6 6 5 4 5 6 8 10 12 13 13 13 13 14 14 15 16 16 17 18 18 19 19 20 21 21 21 20 20 19 19 19 19 20 21 21 21 21 21 21 20 20 20 20 20 20 19 19 18
1 3 5 2 1 2 4 5 6 8 5 3 4 5 4 3 3 4 4 5 7 9 9 9 8 8 5 4 5 5 8 8 7 8 6 6 7 5 4 4 3 4 6 8 9 10 10 11 11 12 13 14 15 16 17 18 18 19 19 20 20 20 19 19 19 19 18 18 17 17 18 18 19 20 20 20 20 20 20 20 20 20 21 20 20 19
1 2 5 6 6 7 9 8 7 9 9 7 7 7 8 7 4 5 8 6 5 8 8 9 10 7 1 5 6 8 7 5 7 9 7 7 6 4 3 3 3 4 5 7 7 8 8 9 10 11 12 14 15 16 17 18 18 19 20 20 20 20 20 20 19 18 18 17 16 16 16 16 16 17 17 18 18 19 20 20 21 21 21 21 20 19
1 1 5 8 9 11 14 15 11 8 8 8 8 8 9 8 6 7 9 5 4 6 6 9 12 6 3 6 6 7 7 8 9 9 9 7 6 4 3 3 4 4 4 4 5 6 7 8 10 11 12 13 14 15 16 16 17 18 18 18 19 19 19 19 19 19 18 17 16 15 14 14 13 13 14 16 17 18 19 20 20 21 22 22 22 21
1 2 5 7 7 9 13 14 9 4 5 7 5 4 4 6 6 6 6 5 4 5 6 8 10 3 4 6 7 9 9 8 7 7 7 6 4 4 3 2 2 2 2 3 4 6 7 9 10 12 13 14 14 15 15 16 16 16 16 17 17 17 18 18 18 18 18 18 18 17 17 16 15 14 14 14 15 17 18 19 19 20 21 21 22 22
1 3 4 5 6 6 8 10 5 1 1 1 2 4 5 6 8 7 5 5 4 6 8 9 7 1 2 3 4 5 4 4 4 5 5 5 5 4 4 3 2 1 1 2 4 5 6 8 9 10 11 12 13 14 14 14 15 15 16 16 16 17 17 17 18 19 19 20 20 20 21 21 20 20 19 18 17 16 17 18 19 20 20 21 21 22
3 4 4 6 8 8 7 7 4 1 2 2 3 6 8 8 9 8 6 7 7 6 7 8 6 4 3 2 3 4 5 5 6 7 6 6 6 6 5 4 3 2 1 1 2 4 5 6 7 8 9 9 10 11 12 13 14 14 15 16 17 17 17 18 18 19 19 20 21 22 22 23 23 23 23 22 21 20 19 19 19 20 20 21 21 21
2 4 6 8 9 10 10 9 8 8 8 9 9 9 9 9 9 7 7 9 8 6 7 9 10 10 10 11 9 5 5 5 5 8 7 6 7 7 6 5 5 4 3 2 2 3 4 5 6 7 7 8 9 10 11 12 13 14 15 16 17 18 19 19 19 19 20 20 21 21 22 23 23 24 24 24 23 23 22 22 21 21 22 22 22 22
3 6 9 11 11 13 14 15 15 14 13 13 14 14 14 13 10 10 12 12 9 8 8 9 12 13 12 14 14 11 12 10 4 8 8 7 8 8 7 6 6 5 5 4 4 4 5 6 7 8 8 8 9 10 10 11 12 12 13 15 16 17 19 19 20 21 22 22 23 23 24 24 24 24 24 25 25 25 25 24 23 23 24 24 24 24
4 9 12 13 13 15 16 17 16 14 14 13 15 16 17 17 17 15 16 15 12 11 12 12 18 20 15 17 20 17 12 5 5 8 7 7 7 7 6 6 7 7 8 8 7 6 7 8 9 9 10 10 10 11 11 11 12 12 13 13 15 16 17 18 19 21 22 24 25 26 27 28 28 28 27 26 26 26 26 26 26 25 25 25 25 25
4 8 9 8 10 12 14 16 15 13 13 14 16 18 19 21 23 21 19 19 19 19 20 21 25 25 20 20 17 8 4 6 7 7 6 6 5 6 6 7 8 9 10 9 9 8 8 9 9 10 11 11 12 12 13 13 13 13 14 14 15 16 16 17 19 20 21 23 24 26 27 29 30 31 31 30 30 29 28 28 28 27 26 25 25 25
5 6 4 3 6 10 12 13 14 14 15 16 17 19 22 24 25 22 20 19 19 20 21 23 24 21 15 8 3 6 7 5 4 3 3 2 2 3 5 7 8 10 11 12 11 11 10 11 10 11 11 12 12 13 14 15 15 16 16 17 17 18 19 20 21 21 22 23 25 26 27 29 30 31 31 32 32 33 33 32 32 31 29 28 27 26
4 5 4 4 7 8 9 13 14 13 14 15 18 21 23 22 20 18 16 15 15 17 19 19 17 11 3 4 5 6 5 4 3 2 2 2 3 5 7 9 10 11 12 13 13 13 12 12 12 12 13 13 13 14 15 16 16 17 18 18 20 20 21 22 23 24 25 25 26 27 28 30 31 32 33 33 33 33 34 34 35 35 35 34 32 30
4 5 5 6 7 6 8 11 9 6 9 12 13 16 18 18 17 17 16 17 18 17 15 12 8 2 1 1 1 4 6 5 4 5 4 5 7 8 9 10 12 14 14 15 15 15 14 14 14 14 14 15 17 18 18 18 19 21 22 23 24 24 25 25 26 27 28 29 29 30 30 31 32 33 34 35 35 36 36 36 36 36 37 38 38 37
7 7 7 7 7 8 10 7 3 5 11 10 4 5 10 13 13 13 15 16 16 14 9 5 2 1 1 1 2 5 6 7 8 8 8 8 9 10 10 11 13 15 16 16 17 18 18 18 18 18 18 20 21 22 23 23 24 26 27 27 27 28 28 29 30 31 32 33 34 34 34 34 34 35 36 36 37 38 38 39 38 38 38 39 40 40
8 9 8 7 8 10 9 7 8 10 9 3 2 1 5 6 6 11 15 16 16 16 12 8 7 5 0 4 6 6 8 10 11 12 13 13 13 12 12 12 14 15 16 17 18 19 19 19 20 20 20 22 23 24 25 27 27 27 26 26 27 28 30 31 32 33 34 35 37 37 38 38 39 40 40 39 40 40 40 41 41 40 41 41 42 42
10 9 8 7 8 9 8 9 11 8 3 3 6 7 6 6 7 11 13 11 10 10 9 8 7 2 4 7 8 9 10 10 12 14 16 15 14 12 11 11 13 15 16 17 18 19 20 20 20 21 24 26 26 25 23 22 21 20 19 22 25 28 31 33 34 36 37 38 39 40 41 42 44 45 46 45 44 45 45 45 44 44 43 44 45 45
11 9 7 7 8 8 9 10 10 10 9 10 10 8 5 4 4 5 7 7 4 4 5 5 2 4 6 8 9 9 9 9 9 11 12 10 10 9 10 11 14 15 16 17 19 21 22 22 22 23 24 23 22 20 17 17 17 16 18 23 26 29 32 34 37 40 41 42 43 44 45 46 46 48 50 52 51 50 50 49 49 48 47 47 48 47
9 9 8 8 7 7 9 10 10 11 10 7 4 4 5 5 6 6 7 7 2 3 4 1 4 5 7 7 8 8 7 6 6 8 9 9 11 13 13 13 14 15 17 19 20 21 22 23 25 25 24 23 23 23 21 22 22 22 26 30 32 35 37 39 42 44 43 44 47 48 47 47 47 48 51 54 55 55 54 53 53 51 50 51 51 51
6 7 7 8 8 7 9 10 9 10 7 1 1 2 6 5 6 7 8 8 1 2 2 5 3 6 6 7 9 8 6 5 5 8 11 14 16 18 17 16 16 17 19 20 19 21 24 27 29 31 31 31 31 30 29 30 31 32 34 36 38 41 44 45 46 45 44 46 49 48 47 48 49 50 51 53 55 56 56 55 55 54 53 53 55 55
3 4 6 8 9 9 10 9 8 8 5 0 1 2 3 4 5 6 9 7 2 4 3 2 3 8 7 8 9 6 5 6 8 11 16 19 20 20 18 17 18 19 19 19 21 26 29 31 32 34 35 34 33 33 34 36 38 39 40 42 44 46 47 47 46 45 46 48 49 49 49 50 50 50 51 52 55 56 57 57 57 56 55 55 56 56
3 3 6 8 9 10 11 10 7 7 7 5 7 7 1 3 1 6 8 2 4 5 5 5 8 10 10 10 9 7 9 11 13 16 19 20 20 20 19 18 17 18 18 21 27 31 32 32 33 34 35 35 35 36 37 38 41 43 45 46 48 49 48 48 47 47 49 51 52 54 54 53 52 51 51 53 53 54 56 57 56 56 57 57 59 59
3 3 5 8 9 9 9 10 9 7 6 6 6 5 5 4 4 6 3 2 4 6 6 8 11 11 12 12 11 11 14 15 16 18 18 19 20 20 19 17 17 19 23 27 31 32 32 34 35 35 36 37 38 40 41 43 45 47 48 50 51 51 51 52 52 53 54 56 58 60 59 58 56 54 53 53 52 52 54 55 54 53 54 55 58 60
4 4 5 7 8 7 7 9 9 7 3 4 5 3 5 6 8 8 6 5 8 9 9 9 11 12 12 13 13 13 15 16 17 18 19 20 20 18 16 16 19 24 29 30 30 32 33 35 36 36 37 38 40 41 43 44 46 47 49 51 52 53 55 56 57 58 60 62 63 63 63 62 60 57 55 54 53 52 53 55 54 53 52 53 54 57
6 6 7 6 5 7 8 7 6 6 4 6 8 5 7 9 11 13 13 14 15 14 12 12 14 15 13 13 14 15 16 17 19 20 20 18 16 15 17 21 25 28 29 29 30 32 34 35 36 37 38 38 39 40 42 44 46 48 50 52 53 55 57 57 58 58 60 62 62 63 63 62 61 61 59 57 55 54 56 57 56 55 55 55 56 57
7 8 9 8 7 8 10 9 8 10 8 7 12 11 12 16 21 22 20 18 17 16 15 15 16 16 14 13 13 15 16 18 19 18 17 16 16 18 22 26 27 27 28 30 31 33 34 35 36 36 37 37 39 41 43 46 48 50 52 52 52 53 54 55 56 57 59 60 60 61 62 61 62 62 60 58 56 53 55 57 55 54 55 55 55 56
10 14 12 9 9 11 14 16 16 17 18 16 15 17 20 24 27 26 23 21 19 18 19 18 17 18 17 16 15 16 16 16 16 17 18 19 21 23 25 26 27 27 29 31 32 33 33 34 34 36 37 39 41 44 46 48 48 49 50 49 48 49 51 52 54 55 57 58 59 59 59 59 61 60 58 56 54 52 54 54 50 48 48 45 44 45
13 19 14 8 9 11 10 13 15 18 22 24 22 23 26 26 26 25 23 22 21 19 18 18 20 22 22 20 18 18 18 17 18 20 22 23 24 25 25 26 27 28 30 31 32 33 33 34 36 39 41 44 46 47 47 47 46 44 44 45 45 46 48 50 52 54 56 57 57 58 57 56 57 57 55 54 52 51 50 45 39 38 38 36 34 35
11 15 12 10 12 12 11 15 20 22 25 26 25 25 26 26 26 25 24 23 21 20 20 21 22 21 21 21 20 20 20 19 20 22 23 23 24 25 26 27 28 29 31 31 31 32 34 36 39 42 44 47 47 47 46 44 42 41 42 43 44 46 48 50 51 53 54 55 55 55 54 52 51 51 50 49 48 46 44 39 34 34 37 37 36 36
12 12 10 10 11 12 13 18 22 22 22 25 28 28 27 27 25 24 23 22 21 21 22 22 21 21 21 22 22 22 22 22 21 22 23 24 24 24 26 27 29 30 31 31 32 34 36 39 41 43 45 46 44 43 42 41 40 40 40 41 43 44 47 49 50 51 52 52 52 51 49 47 45 44 45 46 47 45 43 40 37 37 40 41 39 38
14 12 10 10 10 10 11 14 16 14 13 18 24 24 23 23 23 22 22 21 21 22 22 21 22 24 24 23 23 23 23 23 22 22 24 24 24 25 26 28 29 30 30 31 34 36 38 40 42 43 43 41 39 39 39 40 39 39 38 39 41 42 44 46 48 50 50 49 47 47 45 44 43 43 44 45 45 45 44 41 37 36 38 41 40 38
16 14 13 11 10 12 14 18 19 16 15 21 26 23 20 20 20 19 20 20 21 21 21 21 22 24 23 24 25 24 23 22 22 23 24 24 25 25 27 28 29 30 31 33 35 38 40 40 40 39 38 37 36 37 38 38 38 37 37 38 39 41 42 44 45 46 46 45 45 44 43 43 43 43 42 42 42 41 41 40 38 36 35 37 38 38
Wind_Direction
192 210 207 220 237 246 248 245 251 263 274 284 287 282 280 281 279 282 283 285 292 290 283 284 288 293 297 297 289 281 279 278 275 275 274 272 273 278 287 17 28 358 2 48 50 41 49 54 51 49 45 40 24 1 311 285 276 266 262 269 278 279 275 272 270 266 263 261 259 258 257 257 256 255 255 258 256 251 246 251 256 257 256 255 253 251
191 226 227 231 244 255 265 274 277 278 279 279 281 280 277 278 281 282 285 289 299 297 284 288 290 292 296 291 281 280 280 276 273 269 263 266 278 303 73 44 352 33 82 72 49 39 49 57 57 56 54 50 45 42 38 29 358 291 262 261 270 278 282 284 283 279 276 273 269 266 265 263 261 259 260 262 259 254 254 257 258 257 257 256 254 253
214 234 236 237 247 257 265 276 280 276 275 274 272 275 276 281 285 285 287 293 318 307 291 298 297 293 287 278 276 280 268 255 261 262 263 273 316 36 20 5 87 100 86 61 45 43 50 54 57 56 53 49 45 43 43 43 42 29 308 266 267 273 278 282 287 292 291 286 279 274 270 266 264 262 262 262 259 259 262 263 260 259 259 258 257 255
242 247 236 240 248 257 262 263 266 267 263 260 260 270 276 280 284 288 297 305 306 287 290 301 298 287 276 264 263 266 241 235 260 265 277 10 57 58 58 80 94 87 70 55 48 50 55 56 57 56 54 50 46 43 42 41 39 37 28 354 294 283 285 283 282 287 291 290 287 282 277 272 269 267 266 266 265 264 267 267 265 264 263 262 261 259
258 273 153 229 245 252 264 263 259 261 261 258 256 261 267 275 282 291 304 311 304 288 290 309 300 286 277 220 186 220 219 252 266 242 90 79 87 89 84 78 72 67 60 54 53 56 59 57 56 57 55 52 49 46 44 42 39 35 29 20 7 330 311 302 292 285 281 282 285 286 284 282 278 275 273 273 272 272 272 273 273 272 271 269 267 265
263 270 133 202 240 242 256 261 256 256 270 269 257 256 266 280 289 295 306 314 308 290 35 4 320 294 95 219 271 273 260 271 269 118 103 101 101 94 85 72 63 61 55 55 61 63 62 60 57 56 55 52 50 48 47 46 44 41 36 30 22 11 359 332 309 300 295 290 289 289 290 290 288 285 284 282 280 279 279 278 278 277 276 274 272 270
262 234 127 225 241 242 244 254 256 251 262 269 274 291 286 292 296 300 310 312 301 292 316 0 305 284 283 272 275 277 263 264 262 91 99 106 99 86 76 69 57 52 55 61 66 66 64 62 58 55 53 52 50 48 48 47 46 45 42 38 32 25 17 3 346 331 322 316 309 303 298 294 291 289 288 287 286 284 283 283 283 282 281 279 277 275
210 197 144 213 228 236 234 251 251 229 245 268 17 1 320 305 301 304 309 292 283 294 289 245 229 266 285 281 266 234 250 257 100 92 104 106 96 83 75 72 62 52 56 63 66 68 65 62 60 58 55 52 51 48 47 46 45 44 42 38 35 32 26 18 8 357 347 338 325 318 314 308 301 296 292 288 286 287 288 288 288 289 288 287 285 282
164 194 193 188 203 225 228 249 231 195 237 288 52 354 326 308 295 297 293 283 286 297 290 214 195 259 283 293 256 209 245 255 98 102 107 100 89 87 84 82 77 67 66 69 69 69 67 64 62 60 58 54 51 48 47 46 44 44 42 38 35 33 30 25 19 11 2 351 339 331 324 317 311 306 301 295 290 292 295 295 295 296 294 294 292 290
169 166 217 199 208 238 236 273 31 200 237 37 75 289 277 254 260 266 266 280 287 276 276 232 193 241 294 297 249 223 243 129 110 107 103 93 78 81 85 85 85 81 78 76 74 71 69 67 64 61 59 55 52 50 48 47 46 45 41 36 34 32 29 26 23 18 12 4 354 345 334 321 311 303 300 297 294 295 298 300 301 301 299 299 297 295
237 100 21 238 234 256 90 67 29 1 304 48 276 281 276 250 238 244 246 263 274 263 285 254 196 217 294 315 285 291 128 131 134 134 124 109 92 85 81 80 83 85 83 78 77 75 70 67 64 61 59 54 51 50 49 49 48 44 39 35 32 30 27 24 22 20 16 12 5 355 345 335 324 312 301 295 294 294 296 299 302 303 303 302 301 299
228 190 222 225 228 238 139 138 86 83 108 244 263 286 295 267 223 232 224 202 259 267 351 35 181 224 254 259 349 28 117 137 145 144 137 115 103 100 86 77 79 82 82 78 76 73 68 67 64 60 58 54 51 50 49 49 44 39 36 34 30 27 24 21 19 18 16 14 11 4 355 344 334 323 313 303 298 294 293 297 301 304 305 304 303 301
231 218 209 198 205 211 213 219 178 165 183 217 241 256 284 287 262 261 251 234 262 266 82 59 24 251 252 261 274 262 152 119 108 122 130 120 110 106 93 81 77 80 79 75 74 71 69 69 66 63 61 58 56 52 47 41 37 34 33 30 27 26 23 19 16 14 14 14 12 9 3 354 343 330 318 307 301 298 295 295 298 301 304 304 304 303
279 229 182 183 200 195 199 214 226 211 188 196 213 223 248 281 282 278 276 268 271 271 108 130 287 273 265 263 252 245 173 108 106 108 118 120 116 113 104 91 81 80 79 75 74 72 71 70 66 63 61 59 55 48 42 37 34 32 30 28 26 24 22 18 16 13 11 11 10 9 8 4 356 343 329 317 309 303 300 297 294 295 296 297 299 301
281 293 178 180 160 164 187 226 255 11 173 197 209 234 249 264 265 273 280 274 281 297 292 222 235 273 274 353 287 226 113 105 109 102 104 107 107 108 100 89 79 79 82 80 78 75 73 69 64 59 55 51 45 41 40 39 37 35 33 31 27 24 21 17 15 12 10 8 7 7 9 10 8 1 349 336 324 314 308 302 297 294 291 289 290 293
268 281 160 122 106 162 187 227 236 56 210 197 102 249 256 253 238 265 282 279 294 300 282 242 240 265 272 314 295 210 109 102 107 104 101 98 98 98 89 81 72 70 77 80 79 74 70 65 60 56 50 45 41 39 38 37 37 36 35 32 29 26 22 17 14 12 9 8 5 5 8 10 11 9 6 359 348 335 323 312 303 298 295 292 290 287
266 278 112 93 286 195 198 262 167 251 264 143 147 226 251 326 259 271 274 257 252 273 273 257 261 271 274 279 261 210 114 101 109 107 103 102 97 91 84 81 76 70 72 77 76 72 68 63 57 53 47 44 41 38 37 36 34 31 30 30 29 27 23 19 17 13 10 8 5 5 6 7 9 8 9 8 4 357 347 333 319 310 304 300 296 294
269 281 246 198 249 231 49 355 287 294 307 151 201 250 14 309 250 254 264 256 248 259 263 258 266 276 278 281 210 130 123 119 120 112 106 107 102 93 88 88 90 86 78 76 74 69 65 60 55 51 47 45 42 38 36 33 29 27 26 25 25 24 23 20 17 14 11 7 5 5 5 4 5 4 4 4 3 2 359 352 344 334 324 314 306 303
280 283 272 243 273 270 87 312 246 227 216 210 297 337 312 272 263 243 253 261 259 264 265 254 260 269 266 265 269 216 164 141 127 122 116 112 109 104 105 103 96 92 81 74 72 67 62 57 53 51 49 45 41 37 35 31 29 27 24 24 22 20 18 16 15 14 11 7 5 4 4 4 3 1 0 359 357 356 355 354 353 350 344 336 326 319
12 281 280 51 46 49 119 214 235 222 169 96 301 276 233 268 278 261 258 262 262 265 268 259 254 257 261 275 289 275 160 144 139 131 120 108 107 109 114 117 104 96 87 77 72 66 61 56 52 49 45 42 38 35 32 28 26 23 21 20 17 14 12 10 9 9 7 5 3 359 358 357 357 356 355 353 353 352 351 351 350 350 351 348 342 335
17 268 276 300 19 259 229 221 243 258 253 221 234 239 224 228 266 274 255 237 253 263 264 265 258 252 269 329 359 57 107 128 132 125 116 103 104 102 104 108 94 84 78 74 70 63 58 52 45 40 34 30 26 22 19 16 14 13 11 9 7 7 6 4 3 2 0 358 356 352 349 347 346 346 346 346 346 345 345 345 346 347 347 348 347 343
255 240 265 273 269 262 262 266 275 278 277 271 259 255 257 258 258 261 252 230 232 253 254 261 262 250 313 17 47 77 83 85 104 116 117 111 111 109 105 106 101 89 78 73 69 59 51 41 32 28 23 19 17 12 10 9 6 5 3 0 359 359 358 359 359 357 357 355 352 349 346 341 338 337 337 339 339 338 339 339 340 341 340 341 342 342
29 250 259 266 264 268 281 288 286 271 264 266 264 267 273 274 264 260 268 271 265 271 274 266 261 252 64 36 39 59 65 74 87 100 109 115 123 125 125 115 98 84 68 56 47 36 30 23 18 16 14 13 12 9 7 5 3 1 358 355 353 352 352 353 353 353 354 354 352 351 347 343 338 333 330 329 331 333 335 337 337 336 335 335 335 335
90 241 250 258 264 275 283 284 281 270 258 250 251 293 306 287 284 285 283 288 283 279 284 270 261 268 51 37 37 51 62 71 76 91 107 122 135 140 148 137 113 92 58 33 22 17 12 10 10 9 9 7 4 3 1 358 356 353 351 349 347 347 347 346 346 347 347 348 350 349 348 347 345 342 339 333 331 331 331 333 333 332 331 330 330 330
264 259 269 283 285 283 279 269 257 87 36 267 272 309 309 290 290 298 288 276 252 232 246 259 263 280 49 52 67 73 86 110 130 138 144 159 166 172 183 179 177 160 70 24 10 11 7 9 9 4 1 358 355 353 350 348 347 345 344 343 341 341 341 341 340 340 339 339 340 341 342 344 344 345 345 344 341 337 333 331 330 329 327 325 324 324
278 267 275 279 276 272 271 271 277 354 358 310 277 276 280 278 279 290 292 277 267 249 248 262 275 290 291 247 185 178 187 183 177 177 176 177 176 179 188 194 205 216 255 324 340 352 353 355 356 352 348 345 342 339 336 336 336 338 339 338 338 338 337 337 337 337 338 337 335 336 336 337 338 340 341 342 342 341 338 335 331 329 328 326 325 323
271 263 252 250 256 264 269 280 299 307 295 288 288 282 278 272 269 274 268 261 274 293 277 265 273 283 288 285 274 236 228 240 208 185 181 176 176 180 189 199 209 218 233 262 292 321 337 338 335 333 330 328 327 323 323 324 324 326 327 327 329 331 331 332 334 335 336 336 335 334 332 331 333 334 335 337 337 337 337 336 333 331 329 327 327 325
257 267 260 256 256 261 269 276 284 287 282 282 285 283 278 275 268 259 255 262 285 296 275 273 282 282 282 287 289 285 282 283 226 174 182 182 181 189 197 208 221 231 243 256 271 294 315 319 319 321 317 314 314 314 313 315 316 315 316 317 317 319 321 323 326 328 330 332 333 331 330 329 328 329 330 331 332 332 332 332 331 330 328 327 326 325
270 272 271 272 271 269 273 277 278 279 281 283 282 279 279 277 271 262 261 270 279 273 272 286 288 283 282 283 283 287 296 311 117 143 166 170 177 192 202 219 235 239 242 250 259 271 287 300 305 310 313 314 313 314 314 315 316 315 312 312 310 309 311 313 315 319 321 324 326 326 326 326 326 325 325 325 326 327 327 327 327 326 326 325 324 322
265 266 270 283 284 277 273 273 275 278 280 278 274 273 273 270 267 267 272 275 272 270 273 277 277 276 278 281 284 302 22 72 99 122 143 154 177 199 217 239 248 248 248 251 256 261 267 275 282 288 298 308 312 315 317 316 317 316 314 313 311 308 308 307 309 311 313 315 317 318 318 319 320 320 321 321 321 321 322 322 322 321 321 321 320 319
267 266 281 318 292 272 265 267 270 271 272 273 271 268 265 265 266 269 273 274 271 270 269 267 268 272 276 288 344 68 79 83 91 102 123 149 192 228 258 272 273 267 263 260 260 264 265 267 271 274 278 287 297 305 311 314 314 314 313 313 312 310 308 308 308 309 309 310 310 310 311 312 312 312 313 315 316 316 316 317 316 315 315 314 314 314
274 273 287 292 274 261 259 267 274 278 278 273 265 260 258 260 265 265 264 263 263 266 266 265 269 276 300 47 68 84 78 65 54 32 14 335 323 310 298 298 300 293 284 275 268 263 262 263 264 268 275 284 292 300 308 311 310 312 315 314 312 311 309 308 308 307 306 306 306 306 306 307 306 306 307 308 308 308 309 310 311 311 310 309 308 308
257 266 278 276 270 265 264 272 288 305 286 268 256 248 247 253 259 258 258 259 257 261 268 272 276 278 94 54 86 93 69 39 4 345 336 325 322 317 309 303 302 300 296 289 279 269 263 263 263 267 278 291 301 307 311 309 308 312 316 316 314 314 313 312 311 309 308 307 306 305 305 304 304 303 302 303 303 303 303 304 304 305 305 305 304 304
243 251 263 266 266 270 273 281 300 264 261 264 261 235 248 262 268 265 266 268 266 269 276 278 268 233 197 167 92 69 32 354 339 331 316 308 308 307 307 305 302 303 301 295 289 283 275 273 278 282 289 298 304 307 307 306 307 309 311 311 311 311 311 312 311 310 310 310 309 308 307 305 303 301 300 299 299 299 299 299 300 300 300 300 300 300
247 247 253 258 260 267 275 274 259 248 248 262 65 203 248 262 267 265 267 269 272 274 276 281 284 273 269 66 54 25 355 335 323 314 303 300 297 291 297 307 307 308 309 305 301 297 288 280 280 284 291 298 301 300 300 301 303 304 304 305 306 306 306 306 306 306 307 308 309 309 308 306 304 302 300 299 299 299 297 297 296 296 296 296 295 295
247 249 254 256 254 261 262 250 250 257 271 275 264 262 259 247 245 259 267 271 274 275 277 285 288 272 78 47 18 352 336 321 307 299 294 296 296 285 285 304 314 314 317 319 318 315 309 299 290 288 294 298 298 297 297 298 298 295 294 297 300 300 301 302 303 304 306 308 309 309 308 308 307 305 302 301 300 300 299 298 297 296 294 293 291 290
239 244 254 255 249 254 256 249 256 276 283 270 266 277 288 280 278 289 292 293 302 315 302 273 212 96 51 8 349 336 319 306 299 293 291 299 312 302 289 300 316 320 319 321 322 321 319 314 305 301 302 302 299 300 300 296 289 283 286 295 301 302 303 303 305 307 308 309 309 308 307 307 306 304 303 302 301 300 299 299 297 295 294 292 289 288
239 242 245 250 253 254 260 263 263 268 271 266 277 333 26 32 18 0 317 297 305 0 348 86 121 61 15 338 328 326 310 298 297 298 303 320 331 324 309 303 311 318 318 320 321 319 316 313 308 305 305 302 300 303 302 295 290 288 293 299 304 306 306 307 308 309 309 308 307 306 305 304 303 301 301 300 300 299 298 297 295 294 292 290 288 287
236 245 238 246 257 251 256 262 256 260 269 211 199 13 62 62 22 359 309 290 240 113 83 94 68 355 341 314 311 316 302 287 285 298 312 321 321 318 311 304 305 312 317 320 319 315 312 311 309 307 307 306 304 303 301 298 297 298 300 303 305 306 308 308 309 308 307 306 305 303 302 302 301 299 298 297 297 297 296 294 293 291 289 288 287 286
194 225 220 229 243 241 245 252 249 263 286 109 243 313 74 81 22 334 290 284 126 145 166 140 310 312 307 298 301 297 276 279 288 300 309 311 311 310 307 304 306 312 317 317 312 310 311 311 310 309 309 310 309 305 303 302 302 302 303 304 305 306 308 308 307 306 305 303 302 300 299 299 298 296 294 293 294 294 293 292 290 289 287 285 284 284
181 214 222 228 238 238 242 251 254 261 269 269 277 281 187 103 322 270 272 279 150 197 229 226 256 280 282 281 284 274 271 281 287 292 298 301 303 305 304 304 306 307 309 308 307 308 309 308 309 309 309 310 310 307 306 307 306 306 307 307 307 308 310 309 307 306 304 302 300 299 299 298 296 294 292 291 291 291 290 289 288 287 286 284 283 282
200 206 225 236 244 241 243 254 262 265 253 239 250 238 179 169 250 260 295 60 191 237 261 244 249 268 273 271 272 271 277 284 285 288 293 297 300 302 303 305 302 299 302 303 305 307 307 307 308 308 308 309 309 309 309 309 309 309 309 309 309 309 309 307 306 305 303 301 300 299 298 297 296 294 293 292 291 290 289 288 287 286 285 283 283 281
242 245 242 241 243 246 252 251 251 269 262 167 149 156 188 213 257 279 302 304 279 285 292 272 271 281 278 274 277 280 285 290 290 293 295 297 299 300 300 299 296 297 302 305 305 306 306 307 307 306 306 307 307 307 308 308 308 308 307 307 306 306 305 303 303 303 301 300 299 298 298 297 296 294 293 292 290 289 287 287 286 285 284 283 283 283
244 246 252 252 242 247 260 251 240 281 293 174 179 234 253 245 264 283 291 290 289 293 294 289 291 294 289 284 283 284 288 291 294 296 297 296 297 295 291 292 295 299 303 304 305 306 306 306 305 304 305 306 306 307 307 307 306 305 304 304 304 304 303 303 303 302 301 300 299 298 298 297 296 295 294 292 291 289 287 286 286 285 283 282 282 283
219 224 236 248 256 259 267 269 274 292 289 202 195 232 259 261 268 279 284 282 279 284 290 293 292 292 292 288 282 282 286 290 292 294 291 290 290 289 290 294 298 301 303 303 304 304 304 304 304 304 305 306 307 307 306 306 306 305 304 305 306 306 306 305 304 303 301 300 299 298 298 297 296 295 294 294 293 290 288 289 287 285 283 283 282 281
232 242 244 250 264 265 264 265 269 275 271 253 240 249 259 265 272 277 279 275 275 282 288 288 287 288 290 287 283 283 285 285 285 284 284 287 289 290 294 297 299 301 302 302 303 303 303 305 306 306 307 307 307 307 307 307 308 308 308 310 311 310 308 306 304 303 301 301 300 299 298 298 297 297 297 297 296 295 295 294 291 286 284 282 280 278
242 247 248 247 255 258 259 259 257 260 263 263 262 263 265 268 270 271 272 274 278 281 281 280 282 286 289 289 287 286 283 279 278 281 284 288 290 293 296 298 299 301 302 303 304 305 306 308 308 308 308 308 308 309 309 309 310 311 313 313 312 310 308 307 306 305 304 303 302 301 302 302 302 302 303 303 303 303 301 297 289 283 281 277 275 276
242 245 244 242 244 246 256 262 260 260 263 264 263 265 267 268 268 269 272 275 277 275 275 279 283 286 288 289 288 284 282 279 280 283 286 288 291 295 297 299 300 301 302 304 305 307 308 308 308 308 308 308 309 310 310 311 313 315 316 315 314 313 311 309 308 307 305 305 305 305 306 307 307 307 307 306 306 303 300 294 285 279 278 277 277 277
254 254 248 244 248 252 257 261 263 265 265 261 259 259 262 264 268 272 273 271 269 271 275 280 284 285 285 285 284 282 282 283 283 285 286 289 292 295 297 298 300 301 302 304 306 307 308 308 307 308 309 310 311 311 311 313 316 318 320 319 316 314 312 310 309 308 307 307 307 308 308 307 306 306 305 304 304 301 297 294 288 282 280 282 281 277
252 255 248 245 253 258 251 246 249 255 262 265 267 269 268 268 270 269 265 262 264 269 273 277 281 284 285 283 281 281 282 283 283 284 287 291 293 295 297 297 298 300 302 304 306 307 307 308 308 309 310 311 312 313 314 316 319 323 323 319 317 316 314 312 311 309 308 308 308 307 307 305 303 303 303 302 302 301 298 295 290 285 282 283 283 279
240 243 246 246 248 252 252 251 253 258 267 274 280 282 276 269 266 259 256 260 265 267 270 273 277 280 282 281 281 281 281 281 283 285 288 291 292 293 294 295 297 300 303 306 307 308 308 309 310 310 311 313 314 315 316 319 324 326 324 321 321 319 316 313 311 309 308 308 306 305 304 302 302 303 302 300 300 298 296 295 293 290 285 284 284 282